Weather History for KSLN - October, 2011

Change the Weather History Date:

Tuesday, October 4, 2011

  Actual Average Record
Temperature  
Mean Temperature 74 °F 62 °F  
Max Temperature 90 °F 74 °F 98 °F (1938)
Min Temperature 57 °F 50 °F 30 °F (1999)
Degree Days  
Heating Degree Days 0 5  
Month to date heating degree days 7 20  
Since 1 July heating degree days 66 72  
Cooling Degree Days 9 2  
Month to date cooling degree days 15 10  
Year to date cooling degree days 1973 1622  
Growing Degree Days 24 (Base 50)    
Moisture  
Dew Point 42 °F    
Average Humidity 37    
Maximum Humidity 55    
Minimum Humidity 19    
Precipitation  
Precipitation 0.00 in 0.09 in 0.57 in (2001)
Month to date precipitation 0.00 0.36  
Year to date precipitation 16.14 27.40  
Sea Level Pressure  
Sea Level Pressure 30.06 in    
Wind  
Wind Speed 12 mph (SSE)    
Max Wind Speed 23 mph    
Max Gust Speed 32 mph    
Visibility 10 miles    
Events      
T = Trace of Precipitation, MM = Missing Value Source: NWS Daily Summary

Daily Weather History Graph

Daily Weather History Graph

Search for Another Location

Airport or City:

Trip Planner

Search our weather history database for the weather conditions in past years. The results will help you decide how hot, cold, wet, or windy it might be!

Date:

Astronomy

Oct. 04, 2011 Rise Set
Actual Time 7:29 AM CDT 7:08 PM CDT
Civil Twilight 7:02 AM CDT 7:35 PM CDT
Nautical Twilight 6:31 AM CDT 8:06 PM CDT
Astronomical Twilight 6:00 AM CDT 8:37 PM CDT
Moon 3:08 PM CDT (10/4) 12:18 AM CDT (10/4)
Length of Visible Light 12h 33m
Length of Day
11h 39m
First Quarter, 56% of the Moon is Illuminated
Oct 4
First Quarter
Oct 11
Full
Oct 19
Last Quarter
Oct 26
New
Nov 2
First Quarter

Hourly Weather History & Observations

Time (CDT) Temp. Dew Point Humidity Pressure Visibility Wind Dir Wind Speed Gust Speed Precip Events Conditions
12:53 AM 68.0 °F 42.1 °F 39% 30.05 in 10.0 mi SSE 11.5 mph - N/A   Clear
1:53 AM 66.0 °F 41.0 °F 40% 30.04 in 10.0 mi SSE 11.5 mph - N/A   Clear
2:53 AM 63.0 °F 41.0 °F 45% 30.05 in 10.0 mi SSE 10.4 mph - N/A   Clear
3:53 AM 61.0 °F 41.0 °F 48% 30.04 in 10.0 mi SSE 9.2 mph - N/A   Clear
4:53 AM 60.1 °F 41.0 °F 49% 30.06 in 10.0 mi SE 5.8 mph - N/A   Clear
5:53 AM 59.0 °F 41.0 °F 51% 30.10 in 10.0 mi SE 6.9 mph - N/A   Clear
6:53 AM 59.0 °F 41.0 °F 51% 30.09 in 10.0 mi SSE 9.2 mph - N/A   Clear
7:53 AM 57.9 °F 41.0 °F 53% 30.11 in 10.0 mi SSE 11.5 mph - N/A   Clear
8:53 AM 64.0 °F 41.0 °F 43% 30.12 in 10.0 mi South 11.5 mph - N/A   Clear
9:53 AM 71.1 °F 42.1 °F 35% 30.12 in 10.0 mi South 15.0 mph 20.7 mph N/A   Clear
10:53 AM 77.0 °F 43.0 °F 30% 30.12 in 10.0 mi South 12.7 mph - N/A   Clear
11:53 AM 81.0 °F 43.0 °F 26% 30.11 in 10.0 mi South 13.8 mph 20.7 mph N/A   Clear
12:53 PM 84.9 °F 43.0 °F 23% 30.09 in 10.0 mi South 15.0 mph 20.7 mph N/A   Clear
1:53 PM 89.1 °F 43.0 °F 20% 30.06 in 10.0 mi South 16.1 mph 23.0 mph 0.00 in   Clear
2:53 PM 90.0 °F 42.1 °F 19% 30.04 in 10.0 mi South 19.6 mph 26.5 mph N/A   Clear
3:53 PM 90.0 °F 41.0 °F 18% 30.02 in 10.0 mi South 17.3 mph 27.6 mph N/A   Clear
4:53 PM 87.8 °F 41.0 °F 19% 30.05 in 10.0 mi South 18.4 mph 25.3 mph N/A   Clear
5:53 PM 86.0 °F 41.0 °F 20% 30.01 in 10.0 mi South 13.8 mph 25.3 mph N/A   Clear
6:53 PM 81.0 °F 43.0 °F 26% 30.02 in 10.0 mi SSE 10.4 mph - N/A   Clear
7:53 PM 75.9 °F 43.0 °F 31% 30.04 in 10.0 mi SSE 10.4 mph - N/A   Clear
8:53 PM 73.0 °F 43.0 °F 34% 30.04 in 10.0 mi SSE 10.4 mph - N/A   Clear
9:53 PM 72.0 °F 43.0 °F 35% 30.05 in 10.0 mi SSE 12.7 mph - N/A   Clear
10:53 PM 70.0 °F 43.0 °F 38% 30.05 in 10.0 mi SSE 15.0 mph - N/A   Clear
11:53 PM 66.9 °F 43.0 °F 42% 30.05 in 10.0 mi SSE 11.5 mph - N/A   Clear